Regional Weather Roundup
Issued by NWS Sterling, VA

Home | Current Version | Previous Version | Graphics & Text | Print | Product List | Glossary On
Versions: 1 2 3 4 5 6 7 8 9 10 11 12 13 14 15 16 17 18 19 20 21 22 23 24 25 26 27 28
000
ASUS41 KLWX 200211
RWRLWX

REGIONAL WEATHER ROUNDUP
NATIONAL WEATHER SERVICE BALTIMORE MD/WASHINGTON DC
1000 PM EDT SAT AUG 19 2017

Note: "FAIR" indicates few or no clouds below 12,000 feet
with no significant weather and/or obstructions to visibility.
 TC=TEMPERATURE CELSIUS

 * =Non NWS site. Station does not report precipitation (e.g. rain,
    snow, etc.), thunder, or fog.

DCZ001-MDZ009-015-VAZ040>042-051-053>054-200300-
WASHINGTON METRO

CITY           SKY/WX    TMP DP  RH WIND       PRES   REMARKS
WASHINGTON NAT PTCLDY    82  73  74 S5        29.94R
DULLES         TSTM      75  63  66 N12       30.00R
ANDREWS AFB    CLEAR     75  69  82 S6        29.94R
FT BELVOIR     PTCLDY    74  71  91 CALM      29.95R
QUANTICO       CLEAR     78  75  90 NW7       29.95R
COLLEGE PARK*  MOCLDY    76  65  67 N10G24    29.96R
LEESBURG*      TSTM      72  66  83 W6        30.00R
MANASSAS*      LGT RAIN  70  64  81 SW7       29.98R
GAITHERSBURG*  LGT RAIN  70  64  81 VRB5      30.00R

$$

MDZ006>007-011-014-200300-
BALTIMORE METRO

CITY           SKY/WX    TMP DP  RH WIND       PRES   REMARKS
BWI AIRPORT    MOCLDY    75  62  64 NW17G30   29.97R
MD SCIENCE CTR   N/A     74  65  73 MISG      29.92R
MARTIN STATE   PTCLDY    79  68  69 NW15G25   29.96R
ANNAPOLIS      CLEAR     81  75  82 NW3       29.93R
FORT MEADE*    MOCLDY    73  63  68 NW9G25    30.00R

$$

MDZ012-015-019>023-200300-
MARYLAND EASTERN SHORE

CITY           SKY/WX    TMP DP  RH WIND       PRES   REMARKS
OCEAN CITY     PTCLDY    75  71  87 W5        29.94R
SALISBURY      CLEAR     75  71  87 CALM      29.94R
BAY BRIDGE AP* CLEAR     81  72  74 SW6       29.93R
CAMBRIDGE*     CLEAR     75  72  88 CALM      29.94R

$$

MDZ017>025-200300-
SOUTHERN MARYLAND

CITY           SKY/WX    TMP DP  RH WIND       PRES   REMARKS
PATUXENT RIVER CLEAR     76  72  87 S5        29.93R
ST INIGOES     CLEAR     78  72  81 S3        29.93R
LEONARDTOWN*   CLEAR     73  70  88 CALM      29.96R

$$

MDZ003>005-200300-
NORTH CENTRAL MARYLAND

CITY           SKY/WX    TMP DP  RH WIND       PRES   REMARKS
FREDERICK*     PTCLDY    68  68 100 SE3       30.00R
HAGERSTOWN APT PTCLDY    68  63  84 CALM      29.98R
WESTMINSTER*   CLOUDY    66  64  94 CALM      29.98F

$$

MDZ501>502-200300-
WESTERN MARYLAND

CITY           SKY/WX    TMP DP  RH WIND       PRES   REMARKS
OAKLAND*       CLOUDY    59  55  88 SW3       30.07R
CUMBERLAND*    CLOUDY    64  63  94 CALM      30.04R

$$

VAZ025>031-200300-
SHENANDOAH VALLEY

CITY           SKY/WX    TMP DP  RH WIND       PRES   REMARKS
WINCHESTER*    CLEAR     70  57  64 CALM      29.99R
FRONT ROYAL*   CLOUDY    66  64  94 SE5       29.97F
LURAY*         CLEAR     70  64  83 NE8       29.99R
NEW MARKET*    CLEAR     71  66  83 CALM      29.98R
STAUNTON*      PTCLDY    75  64  70 CALM      30.02R
WAYNESBORO*    CLEAR     73  65  74 SW5       30.01R

$$

WVZ021-048>050-054>055-200300-
EASTERN WEST VIRGINIA PANHANDLE

CITY           SKY/WX    TMP DP  RH WIND       PRES   REMARKS
MARTINSBURG    PTCLDY    69  61  75 CALM      29.96R
PETERSBURG*    MOCLDY    72  67  84 SE6       30.02R

$$

VAZ036>039-050-200300-
CENTRAL FOOTHILLS

CITY           SKY/WX    TMP DP  RH WIND       PRES   REMARKS
CHARLOTTESVILL CLEAR     79  67  66 SW3       29.96R
CULPEPER*      MOCLDY    74  62  65 NE3       29.97S
ORANGE*        CLEAR     70  68  94 CALM      29.96R
GORDONSVILLE*  CLEAR     72  69  92 CALM      29.95S
WARRENTON*     MOCLDY    74  58  58 NE9       29.97R

$$

VAZ055>057-200300-
NORTH AND CENTRAL PIEDMONT

CITY           SKY/WX    TMP DP  RH WIND       PRES   REMARKS
FREDERICKSBRG* CLEAR     75  72  89 CALM      29.94R
STAFFORD*      CLEAR     70  70 100 CALM      29.98R

$$

NCZ024-NYZ072-PAZ021-071-VAZ022-071-200300-
OTHER REGIONAL OBSERVATIONS

CITY           SKY/WX    TMP DP  RH WIND       PRES   REMARKS
NEW YORK CITY  CLEAR     80  64  58 VRB3      29.91R
PHILADELPHIA   PTCLDY    81  68  64 SW6       29.91R
PITTSBURGH     CLEAR     65  64  97 S3        30.00R
ROANOKE        CLEAR     76  64  66 W3        30.03R
RICHMOND       CLEAR     76  72  87 CALM      29.95R
RALEIGH        PTCLDY    79  71  76 CALM      29.98R

$$

ANZ530>537-200300-
MARINE OBSERVATIONS

STATION/POSITION TIME  TEMP    WIND        PRES
                       AIR SEA DIR/SP/G
                 (UTC) (F)     (DEG/KT/KT) (MB)
THOMAS PT LIGHT  0200   81 81  250/  7/  8   N/A
BALT KEY BRIDGE  0142   79     310/ 31/ 36 1013.6R
COVE POINT       0142   80     200/  5/  6 1014.3R
LEWISETTA        0142   79 85  210/  7/  7 1013.6R
SOLOMONS ISLAND  0142   80 83  150/  3/  4   N/A
PINEY POINT      0142          210/  6/  7   N/A

$$





USA.gov is the U.S. government's official web portal to all federal, state and local government web resources and services.